Find Kosmos-480

NORAD ID: 5905 Int'l Des: 1972-019 Owner: OKB10 Country: SU operational
LEOCIRCULARPOLAR

Aktuelle Ansicht

3D-Globus wird geladen...

Über Kosmos-480

Beschreibung wird geladen...

Nächste Überflüge

Passes for default location (London). Set your location on the main map for personalized predictions.

Höhenverlauf

Loading altitude history...

Zweizeiliger Elementsatz

1 5905U 72019A 26149.92721948 .00000024 00000-0 26800-4 0 9998
2 5905 82.9738 306.4335 0019779 84.3798 82.1417 13.19937685609699
Epoch: 29. Mai 2026 • Age: 15 hours

Aktueller Status

Höhe 1189.4 km
Geschwindigkeit 7.26 km/s
Subsatellitenpunkt 0.54°N, 44.85°E
Typ other

Most Searched